Location: *
(49.1466°S, 178.3784°W)
Time: 13:44:21
(UTC+00:00)

Daily predictions for brighter satellites

Satellite Brightness Start Highest point End
(mag) Time Altitude Azimuth Time Altitude Azimuth Time Altitude Azimuth
CZ-4C R/B 3.9 15:19:56 42° ESE 15:19:56 42° ESE 15:24:13 10° SE
USA 215 4.2 15:35:42 10° ESE 15:40:05 42° SE 15:40:05 42° SE
COSMOS 2455 4.1 15:50:23 36° SE 15:50:23 36° SE 15:53:54 10° SE
CENTAUR R/B 3.9 15:57:31 27° N 16:01:16 43° ENE 16:07:48 10° SE
Cosmos 1553 Rocket 4.4 16:09:14 50° SE 16:10:25 58° ESE 16:16:25 10° NNE
Cosmos 2237 Rocket 2.5 16:22:01 63° ESE 16:22:01 63° ESE 16:27:23 10° NE
Cosmos 2227 Rocket 4.3 16:20:06 10° NNE 16:24:34 24° ENE 16:29:04 10° SE
Meteor 2-10 Rocket 4.2 16:24:35 37° S 16:26:50 61° ESE 16:32:37 10° NNE
SL-16 R/B 3.4 16:26:37 10° S 16:30:28 37° S 16:30:28 37° S
SL-16 R/B 3.7 16:36:09 21° S 16:39:07 33° SE 16:44:15 10° ENE
Cosmos 2297 Rocket 2.7 16:37:06 31° N 16:39:41 57° ENE 16:45:18 10° SE
Cosmos 1980 3.6 16:41:22 84° NNE 16:41:22 84° NNE 16:46:50 10° NNE
Cosmos 1818 3.4 16:48:06 83° SSE 16:48:13 84° SE 16:53:38 10° NE
Meteor 1-13 Rocket 4.2 16:49:49 63° NW 16:50:46 78° WSW 16:56:51 10° S
Cosmos 1733 Rocket 3.7 16:54:08 36° SSE 16:55:41 55° ESE 17:00:00 10° NNE
Meteor 1-22 Rocket 4.2 16:57:34 56° NNW 16:57:34 56° NNW 17:01:54 10° N
DMSP B5D2-2 3.9 16:53:49 10° SSE 16:59:12 79° WSW 17:00:32 52° NNW
Spot 4 Rocket 3.9 16:55:51 10° NNE 17:01:02 83° WNW 17:02:22 52° SSW
CORIOLIS 4.3 16:56:05 10° NNE 17:01:32 73° ESE 17:07:02 10° SSW
Cosmos 1707 Rocket 4.3 16:58:54 10° N 17:03:15 54° E 17:07:42 10° SSE
ISS -1.0 17:02:06 14° NNE 17:03:15 16° NE 17:05:28 10° E
NOSS 3-3 (C) 4.2 17:02:18 34° SSW 17:05:08 64° SE 17:10:43 10° NE
BREEZE-M DEB (TANK) 3.1 17:05:13 37° NNE 17:05:15 37° NNE 17:07:46 10° E
Cosmos 304 Rocket 3.9 17:03:09 24° N 17:06:03 72° ENE 17:10:54 10° SSE
CZ-4C R/B 3.2 17:05:02 42° WSW 17:06:07 44° SW 17:12:27 10° SE
SJ-7 4.1 17:20:22 10° N 17:24:18 71° WNW 17:24:27 70° W
SL-08 ROCKET BODY 4.5 17:18:14 10° N 17:24:26 87° E 17:30:46 10° S
USA 215 3.8 17:18:22 10° ESE 17:24:34 45° S 17:27:26 29° SW
Cosmos 1417 Rocket 4.5 17:20:11 10° SSW 17:26:34 65° W 17:32:49 10° N
Cosmos 2228 Rocket 3.0 17:26:05 10° NNW 17:30:34 75° W 17:35:12 10° S
SMAP 3.0 17:26:19 10° N 17:30:58 64° WNW 17:33:40 25° SSW
CZ-2C R/B 3.3 17:27:37 10° NNE 17:31:10 54° ESE 17:33:57 15° S
Cosmos 1455 2.7 17:30:02 16° S 17:32:40 52° ESE 17:36:06 10° NNE
Okean 3 3.5 17:28:49 10° N 17:32:56 78° E 17:37:09 10° SSE
COSMOS 2455 3.6 17:33:32 31° SW 17:34:17 32° SW 17:39:42 10° SSE
Meteor 1-16 Rocket 4.2 17:28:43 10° SSW 17:34:23 89° E 17:40:10 10° N
Cosmos 2266 Rocket 3.8 17:28:17 10° NNW 17:34:25 78° W 17:40:42 10° S
Cosmos 2219 4.4 17:29:43 10° N 17:35:12 46° ENE 17:40:43 10° SE
Cosmos 1315 Rocket 2.6 17:33:03 10° NNW 17:36:59 83° WSW 17:41:01 10° S
Genesis I 3.0 17:38:00 48° SSW 17:38:48 69° SE 17:42:14 10° NE
ADEOS Rocket 3.1 17:35:03 10° NNE 17:40:54 79° ESE 17:47:27 10° SSW
Meteor 1-21 4.1 17:35:42 10° NNW 17:41:23 76° WSW 17:47:11 10° S
Cosmos 773 Rocket 4.2 17:41:00 32° SW 17:42:58 47° WNW 17:47:54 10° N
Cosmos 1953 2.4 17:40:11 10° S 17:44:11 74° E 17:48:05 10° NNE
USA 306 2.9 17:43:37 30° NNW 17:44:54 53° NE 17:48:27 10° ESE
Cosmos 1908 Rocket 4.1 17:40:58 10° S 17:45:27 60° ESE 17:49:51 10° NNE
Meteor 1-23 Rocket 4.4 17:41:03 10° NW 17:46:27 47° WSW 17:51:57 10° S
Cosmos 371 Rocket 3.5 17:44:26 27° WNW 17:46:43 45° WSW 17:51:24 10° SSE
USA 308 4.0 17:47:52 16° E 17:47:52 16° E 17:48:31 10° ENE
ATLAS CENTAUR R/B 3.7 17:47:14 10° S 17:49:16 13° SSE 17:51:14 10° SE
AQUARIUS 4.2 17:45:53 10° N 17:50:18 56° W 17:54:10 14° SSW
CENTAUR R/B 2.8 17:44:46 13° WNW 17:51:53 61° SW 17:58:23 10° SE
NOSS 3-3 (A) 3.8 17:48:51 22° SW 17:53:06 69° NW 17:58:35 10° NNE
Helios 1B rocket 2.6 17:49:15 10° NNE 17:53:10 70° ESE 17:57:09 10° S
Cosmos 2263 Rocket 3.1 17:54:33 10° N 18:00:05 52° ENE 18:05:39 10° SE
Cosmos 1943 4.2 17:56:35 10° SSW 18:02:07 44° SE 18:07:34 10° NE
Cosmos 1900 4.2 17:57:22 10° NW 18:02:17 85° SW 18:07:19 10° SE
Cosmos 1408 4.2 17:59:47 10° NNE 18:02:23 29° E 18:05:01 10° SSE
CZ-4 R/B 4.4 17:59:51 10° NNE 18:04:00 84° WNW 18:08:12 10° SSW
Cosmos 1503 Rocket 4.1 17:59:00 10° NW 18:04:15 57° WSW 18:09:36 10° SSE
NOAA 6 4.2 17:59:26 10° NNE 18:04:35 78° ESE 18:09:49 10° SSW
Cosmos 2237 Rocket 3.3 18:03:53 22° W 18:05:16 24° WNW 18:09:46 10° NNW
Meteor 1-31 Rocket 2.7 18:01:54 10° N 18:05:36 60° WNW 18:09:19 10° SSW
CZ-4B R/B 3.9 18:01:48 10° N 18:05:58 64° WNW 18:10:02 10° SSW
SKYMED 2 3.8 18:03:11 10° SSE 18:07:38 76° ENE 18:12:02 10° N
Cosmos 2227 Rocket 2.2 18:02:30 10° NW 18:08:08 64° WSW 18:13:51 10° SSE
Cosmos 1538 Rocket 4.1 18:04:45 10° SSW 18:10:05 81° ESE 18:15:18 10° NNE
Cosmos 967 Rocket 4.5 18:04:19 10° NW 18:10:32 64° SW 18:16:51 10° SE
Cosmos 1461 4.2 18:09:55 22° SW 18:10:56 24° SSW 18:14:28 10° SSE
SL-16 R/B 4.1 18:11:55 10° SSW 18:15:11 15° SW 18:15:33 15° SW
Landsat 7 4.2 18:13:41 10° NNE 18:18:23 68° ESE 18:23:10 10° S
IGS 5A 3.5 18:16:02 10° N 18:20:05 58° W 18:24:11 10° SSW
Okean 1-7 3.1 18:18:53 10° NNW 18:23:08 54° WSW 18:27:29 10° S
SL-16 R/B 2.4 18:18:02 11° SW 18:23:29 52° WNW 18:28:59 10° N
Cosmos 2297 Rocket 3.0 18:19:01 10° WNW 18:24:04 31° SW 18:29:08 10° SSE
Cosmos 1862 Rocket 4.4 18:22:45 10° NW 18:26:32 28° WSW 18:30:22 10° S
Cosmos 1607 4.0 18:21:57 10° SW 18:28:11 85° SE 18:34:30 10° NE
Cosmos 2082 4.0 18:23:42 10° NNW 18:29:27 78° ENE 18:35:15 10° SSE
Cosmos 1703 Rocket 3.5 18:25:41 10° NNW 18:30:08 72° W 18:34:42 10° S
NOSS 3-2 (A) 4.2 18:22:39 10° WNW 18:31:17 58° SW 18:38:38 10° SE
Resurs 01 Rocket 3.8 18:32:14 10° ENE 18:35:52 24° ESE 18:39:31 10° S
Resurs 1-3 4.5 18:32:14 10° NE 18:36:30 51° ESE 18:40:49 10° S
USA 276 1.3 18:35:05 18° WSW 18:36:39 70° S 18:38:55 10° E
BREEZE-M DEB 1.5 18:35:13 13° W 18:37:16 89° SSE 18:39:26 10° E
SAR-Lupe-2 3.5 18:33:42 10° N 18:37:19 71° WNW 18:40:59 10° SSW
Okean O Rocket 4.1 18:34:31 10° ENE 18:37:41 19° ESE 18:40:51 10° SSE
CZ-3 R/B 4.5 18:34:21 10° WNW 18:38:28 12° NW 18:41:34 10° NW
ISS -3.4 18:36:06 10° WNW 18:39:33 70° NNE 18:43:01 10° ESE
Cosmos 1244 Rocket 4.5 18:35:34 10° NNW 18:41:43 74° W 18:48:00 10° S
USA 186 4.2 18:39:43 10° ENE 18:42:23 23° ESE 18:45:06 10° SSE
BREEZE-M DEB (TANK) 4.1 18:39:02 10° WNW 18:43:01 89° NNE 18:57:36 10° E
Cosmos 292 Rocket 3.8 18:39:27 10° NNW 18:44:12 87° ENE 18:49:02 10° SSE
Aureole 3 4.2 18:43:22 10° WNW 18:45:28 17° WSW 18:47:35 10° SSW
Cosmos 990 Rocket 4.0 18:44:14 10° NNW 18:49:28 65° WSW 18:54:44 10° SSE
Meteor PRIRODA 3.5 18:47:53 10° NNE 18:51:18 84° ESE 18:54:46 10° SSW
CZ-4 R/B 2.3 18:47:38 10° NE 18:51:22 48° ESE 18:55:12 10° S
Cosmos 405 Rocket 2.6 18:47:46 10° S 18:51:29 87° E 18:55:11 10° NNE
YAOGAN 1 2.7 18:47:52 10° N 18:52:08 56° W 18:56:28 10° SSW
SPOT 1/Viking Rocket 4.1 18:47:04 10° NNE 18:52:14 65° ESE 18:57:26 10° S
Cosmos 1300 Rocket 3.6 18:48:00 10° SSW 18:52:23 65° W 18:56:41 10° N
Cosmos 332 Rocket 4.5 18:48:08 10° WNW 18:52:31 33° WSW 18:56:58 10° S
CZ-4B R/B 3.4 18:50:56 10° NNE 18:54:44 61° ESE 18:58:46 10° S
COSMO-SKYMED 1 3.1 18:51:32 10° S 18:55:38 38° WSW 18:59:42 10° NW
CZ-4C R/B 3.8 18:50:28 10° WSW 18:56:12 24° SSW 19:01:01 10° SE
Cosmos 1937 Rocket 4.5 18:51:36 10° N 18:56:44 55° ENE 19:01:59 10° SSE
Cosmos 1680 Rocket 3.8 18:57:20 10° SSW 19:02:42 76° ESE 19:07:59 10° NNE
SJ-6B 2.7 19:01:02 10° NNE 19:04:45 88° E 19:08:31 10° SSW
NOSS 3-2 (C) 4.2 18:56:17 10° WNW 19:05:04 65° SW 19:12:33 10° SE
Radarsat Rocket 4.5 18:59:49 10° NNW 19:05:21 39° W 19:10:51 10° SSW
ATLAS 5 CENTAUR R/B 3.5 18:58:02 10° NNW 19:05:29 62° NE 19:12:28 10° SE
SL-08 R/B 3.5 19:01:48 10° SSE 19:06:52 90° WSW 19:11:50 10° NNW
USA 215 3.6 19:00:34 10° E 19:07:01 61° SSE 19:13:30 10° WSW
